Printer-friendly version

IAU Minor Planet Center

Minor Planet Center

MPEC 2007-U95 : 2007 UQ13

The following Minor Planet Electronic Circular may be linked-to from your own Web pages, but must not otherwise be redistributed electronically.


Read MPEC 2007-U94 Read MPEC 2007-U96


M.P.E.C. 2007-U95                                Issued 2007 Oct. 31, 00:20 UT

     The Minor Planet Electronic Circulars contain information on unusual
         minor planets and routine data on comets.  They are published
   on behalf of Commission 20 of the International Astronomical Union by the
          Minor Planet Center, Smithsonian Astrophysical Observatory,
                          Cambridge, MA 02138, U.S.A.

             Prepared using the Tamkin Foundation Computer Network

                              MPC@CFA.HARVARD.EDU
          URL http://www.cfa.harvard.edu/iau/mpc.html  ISSN 1523-6714

                                   2007 UQ13

Observations:
     K07U13Q* C2007 10 30.35585 02 33 27.61 +14 45 26.4          19.5 V EU095G96
     K07U13Q  C2007 10 30.36981 02 33 25.34 +14 44 45.0          19.7 V EU095G96
     K07U13Q  C2007 10 30.38366 02 33 23.14 +14 44 03.7          19.8 V EU095G96
     K07U13Q  C2007 10 30.39753 02 33 20.91 +14 43 22.4          19.7 V EU095G96
     K07U13Q  C2007 10 30.47285 02 33 08.89 +14 39 37.8          19.4 V EU095G96
     K07U13Q  C2007 10 30.47478 02 33 08.60 +14 39 32.1          19.5 V EU095G96
     K07U13Q  C2007 10 30.47670 02 33 08.31 +14 39 26.2          19.5 V EU095G96
     K07U13Q  C2007 10 30.47863 02 33 07.99 +14 39 20.6          19.4 V EU095G96
     K07U13Q  C2007 10 30.86145 02 32 10.24 +14 20 22.3                 EU095J95
     K07U13Q  C2007 10 30.87672 02 32 07.88 +14 19 37.5                 EU095J95
     K07U13Q  C2007 10 30.88469 02 32 06.60 +14 19 14.2          19.8 R EU095J95

Observer details:
G96 Mt. Lemmon Survey.  Observer R. A. Kowalski.  Measurers E. C. Beshore,
    A. Boattini, G. J. Garradd, A. R. Gibbs, A. D. Grauer, R. E. Hill,
    R. A. Kowalski, S. M. Larson, R. H. McNaught.  1.5-m reflector + CCD.
J95 Great Shefford.  Observer P. Birtwhistle.  0.40-m f/6.0 Schmidt-Cassegrain
    + CCD.

Orbital elements:
2007 UQ13                                                Earth MOID = 0.2970 AU
Epoch 2007 Oct. 27.0 TT = JDT 2454400.5                 MPC
M 122.53646              (2000.0)            P               Q
n   0.79903111     Peri.   26.24495     -0.47354991     +0.82808240
a   1.1501653      Node   217.72857     -0.86946823     -0.49390425
e   0.4158350      Incl.   29.36298     -0.14062529     +0.26521336
P   1.23           H   19.8           G   0.15           U   9
Residuals in seconds of arc
071030 G96  0.1+  0.2-    071030 G96  0.2-  0.1+    071030 J95  0.2-  0.2-
071030 G96  0.2-  0.0     071030 G96  0.0   0.2+    071030 J95  0.3+  0.0
071030 G96  0.2+  0.1-    071030 G96  0.2+  0.0     071030 J95  0.1-  0.2+
071030 G96  0.1+  0.0     071030 G96  0.0   0.2+

Ephemeris:
2007 UQ13                a,e,i = 1.15, 0.42, 29                  q = 0.6719
Date    TT    R. A. (2000) Decl.     Delta      r     Elong.  Phase     V
2007 10 27    02 42.34   +17 33.1    0.520    1.508   169.4     7.0    19.8
2007 11 06    02 17.29   +09 29.1    0.552    1.539   171.2     5.6    19.9
2007 11 16    01 57.99   +02 49.9    0.616    1.566   153.9    16.1    20.6
2007 11 26    01 45.62   -01 52.8    0.704    1.588   139.1    24.0    21.2
2007 12 06    01 39.66   -04 50.8    0.809    1.605   126.6    29.6    21.7

Timothy B. Spahr             (C) Copyright 2007 MPC           M.P.E.C. 2007-U95

Read MPEC 2007-U94 Read MPEC 2007-U96


Our Web policy. Index to the CBAT/MPC/ICQ pages.


Valid HTML 4.01!